Tracking 22879 objects as of 20-Apr-2021
HD Live streaming from Space Station
objects crossing your sky now

CZ-2C R/B

Track CZ-2C R/B now!
10-day predictions


NORAD ID: 45463
Int'l Code: 2020-021D
Perigee: 403.4 km
Apogee: 604.7 km
Inclination: 34.7 °
Period: 94.6 minutes
Semi major axis: 6875 km
RCS: Unknown
Launch date: March 24, 2020
Source: People's Republic of China (PRC)
Launch site: Xichang Space Center, China (XSC)

Note: This is a ROCKET BODY
aabbcc
Your satellite tracking list
Your tracking list is empty




NASA's NSSDC Master Catalog

Two Line Element Set (TLE):
1 45463U 20021D   21109.71406098  .00002946  00000-0  91447-4 0  9995
2 45463  34.6795 263.3570 0146353  36.1417 324.9082 15.22967306 59720
Source of the keplerian elements: AFSPC